{"data":{"norad_id":63278,"epoch":"2026-09-19T06:06:01.539072Z","epoch_age_seconds":266461,"freshness":"STALE","line1":"1 63278U 25053P   26262.25418448  .00010012  00000+0  37277-3 0  9997","line2":"2 63278  42.9987 228.8879 0001435 270.4974  89.5713 15.27586546 85798","mean_motion":15.27586546,"eccentricity":0.0001435,"inclination_deg":42.9987,"raan_deg":228.8879,"arg_perigee_deg":270.4974,"mean_anomaly_deg":89.5713,"bstar":0.00037277,"rev_number":8579,"period_min":94.266344762636,"perigee_km":482.0449176387,"apogee_km":484.01407242277,"semimajor_km":6861.1664950307,"source":"CELESTRAK","updated_at":"2026-09-21T09:00:34.964716Z"}}